Time,TemperatureF,DewpointF,PressureIn,WindDirection,WindDirectionDegrees,WindSpeedMPH,WindSpeedGustMPH,Humidity,HourlyPrecipIn,Conditions,Clouds,dailyrainin,SolarRadiationWatts/m^2,SoftwareType,DateUTC
2015-01-26 00:04:00,30.4,26.4,30.08,North,355,0.0,0.0,85,0.00,,OVC023,0.00,0.00,VWS V14.00,2015-01-26 06:04:00,
2015-01-26 00:09:00,30.3,26.3,30.08,North,355,0.0,0.0,85,0.00,,OVC023,0.00,0.00,VWS V14.00,2015-01-26 06:09:00,
2015-01-26 00:14:00,30.3,26.3,30.07,North,355,0.0,0.0,85,0.00,,OVC023,0.00,0.00,VWS V14.00,2015-01-26 06:14:00,
2015-01-26 00:19:00,30.4,26.4,30.07,North,355,0.0,0.0,85,0.00,,OVC023,0.00,0.00,VWS V14.00,2015-01-26 06:19:00,
2015-01-26 00:24:00,30.4,26.4,30.07,North,355,0.0,0.0,85,0.00,,OVC023,0.00,0.00,VWS V14.00,2015-01-26 06:24:00,
2015-01-26 00:29:00,30.4,26.7,30.07,North,355,0.0,0.0,86,0.00,,OVC023,0.00,0.00,VWS V14.00,2015-01-26 06:29:00,
2015-01-26 00:34:00,30.4,26.7,30.06,North,355,0.0,0.0,86,0.00,,OVC023,0.00,0.00,VWS V14.00,2015-01-26 06:34:00,
2015-01-26 00:39:00,30.4,26.7,30.07,North,355,0.0,0.0,86,0.00,,OVC023,0.00,0.00,VWS V14.00,2015-01-26 06:39:00,
2015-01-26 00:44:00,30.5,26.8,30.07,North,355,0.0,0.0,86,0.00,,OVC023,0.00,0.00,VWS V14.00,2015-01-26 06:44:00,
2015-01-26 00:49:00,30.5,26.8,30.07,North,355,0.0,0.0,86,0.00,,OVC023,0.00,0.00,VWS V14.00,2015-01-26 06:49:00,
2015-01-26 00:54:00,30.5,27.1,30.07,North,355,0.0,0.0,87,0.00,,OVC023,0.00,0.00,VWS V14.00,2015-01-26 06:54:00,
2015-01-26 00:59:00,30.5,27.1,30.06,WSW,257,0.0,0.0,87,0.00,,OVC023,0.00,0.00,VWS V14.00,2015-01-26 06:59:00,
2015-01-26 01:04:00,30.5,27.1,30.06,WSW,257,0.0,0.0,87,0.00,,OVC023,0.00,0.00,VWS V14.00,2015-01-26 07:04:00,
2015-01-26 01:09:00,30.5,27.1,30.05,WSW,257,0.0,0.0,87,0.00,,OVC023,0.00,0.00,VWS V14.00,2015-01-26 07:09:00,
2015-01-26 01:14:00,30.4,27.0,30.05,WSW,257,0.0,0.0,87,0.00,,OVC023,0.00,0.00,VWS V14.00,2015-01-26 07:14:00,
2015-01-26 01:19:00,30.5,27.1,30.06,WSW,257,0.0,0.0,87,0.00,,OVC023,0.00,0.00,VWS V14.00,2015-01-26 07:19:00,
2015-01-26 01:24:00,30.5,27.1,30.07,WSW,257,0.0,0.0,87,0.00,,OVC021,0.00,0.00,VWS V14.00,2015-01-26 07:24:00,
2015-01-26 01:29:00,30.5,27.1,30.06,WSW,257,0.0,0.0,87,0.00,,OVC021,0.00,0.00,VWS V14.00,2015-01-26 07:29:00,
2015-01-26 01:34:00,30.5,27.1,30.06,WSW,257,0.0,0.0,87,0.00,,OVC021,0.00,0.00,VWS V14.00,2015-01-26 07:34:00,
2015-01-26 01:39:00,30.5,27.1,30.06,WSW,257,0.0,0.0,87,0.00,,OVC021,0.00,0.00,VWS V14.00,2015-01-26 07:39:00,
2015-01-26 01:44:00,30.5,27.1,30.06,WSW,256,0.0,0.0,87,0.00,,OVC021,0.00,0.00,VWS V14.00,2015-01-26 07:44:00,
2015-01-26 01:49:00,30.5,27.1,30.06,WSW,257,0.0,0.0,87,0.00,,OVC021,0.00,0.00,VWS V14.00,2015-01-26 07:49:00,
2015-01-26 01:54:00,30.6,27.2,30.06,WSW,257,0.0,0.0,87,0.00,,OVC021,0.00,0.00,VWS V14.00,2015-01-26 07:54:00,
2015-01-26 01:59:00,30.6,27.5,30.06,WSW,257,0.0,0.0,88,0.00,,OVC021,0.00,0.00,VWS V14.00,2015-01-26 07:59:00,
2015-01-26 02:04:00,30.6,27.5,30.06,WSW,257,0.0,1.0,88,0.00,,OVC020,0.00,0.00,VWS V14.00,2015-01-26 08:04:00,
2015-01-26 02:09:00,30.6,27.5,30.05,WSW,237,0.0,3.0,88,0.00,,OVC020,0.00,0.00,VWS V14.00,2015-01-26 08:09:00,
2015-01-26 02:14:00,30.6,27.8,30.05,SW,236,2.0,3.0,89,0.00,,OVC020,0.00,0.00,VWS V14.00,2015-01-26 08:14:00,
2015-01-26 02:19:00,30.6,27.8,30.06,SW,236,0.0,3.0,89,0.00,,OVC020,0.00,0.00,VWS V14.00,2015-01-26 08:19:00,
2015-01-26 02:24:00,30.7,27.9,30.06,SW,235,0.0,0.0,89,0.00,,OVC020,0.00,0.00,VWS V14.00,2015-01-26 08:24:00,
2015-01-26 02:29:00,30.7,27.9,30.06,SSW,210,4.0,4.0,89,0.00,,OVC020,0.00,0.00,VWS V14.00,2015-01-26 08:29:00,
2015-01-26 02:34:00,30.7,27.9,30.05,SW,215,2.0,4.0,89,0.00,,OVC020,0.00,0.00,VWS V14.00,2015-01-26 08:34:00,
2015-01-26 02:39:00,30.7,27.9,30.04,SSW,211,4.0,6.0,89,0.00,,OVC020,0.00,0.00,VWS V14.00,2015-01-26 08:39:00,
2015-01-26 02:44:00,30.7,27.9,30.02,SSW,209,5.0,9.0,89,0.00,,OVC021,0.00,0.00,VWS V14.00,2015-01-26 08:44:00,
2015-01-26 02:49:00,30.7,27.9,30.00,SSW,203,4.0,6.0,89,0.00,,OVC021,0.00,0.00,VWS V14.00,2015-01-26 08:49:00,
2015-01-26 02:54:00,30.6,27.8,30.01,SSW,211,7.0,7.0,89,0.00,,OVC021,0.00,0.00,VWS V14.00,2015-01-26 08:54:00,
2015-01-26 02:59:00,30.6,27.8,29.98,SSW,200,6.0,9.0,89,0.00,,OVC021,0.00,0.00,VWS V14.00,2015-01-26 08:59:00,
2015-01-26 03:04:00,30.6,27.8,30.00,SW,216,4.0,8.0,89,0.00,,OVC021,0.00,0.00,VWS V14.00,2015-01-26 09:04:00,
2015-01-26 03:09:00,30.7,27.9,30.01,SW,217,3.0,6.0,89,0.00,,OVC021,0.00,0.00,VWS V14.00,2015-01-26 09:09:00,
2015-01-26 03:14:00,30.7,27.9,30.02,SW,218,1.0,5.0,89,0.00,,OVC021,0.00,0.00,VWS V14.00,2015-01-26 09:14:00,
2015-01-26 03:19:00,30.7,27.6,30.02,SSW,213,0.0,5.0,88,0.00,,OVC021,0.00,0.00,VWS V14.00,2015-01-26 09:19:00,
2015-01-26 03:24:00,30.8,27.7,30.02,SSW,212,3.0,5.0,88,0.00,,OVC020,0.00,0.00,VWS V14.00,2015-01-26 09:24:00,
2015-01-26 03:29:00,30.8,27.7,30.01,SSW,213,3.0,4.0,88,0.00,,OVC020,0.00,0.00,VWS V14.00,2015-01-26 09:29:00,
2015-01-26 03:34:00,30.8,27.7,30.01,SSW,213,0.0,4.0,88,0.00,,OVC020,0.00,0.00,VWS V14.00,2015-01-26 09:34:00,
2015-01-26 03:39:00,30.8,27.7,30.01,SSW,211,4.0,6.0,88,0.00,,OVC020,0.00,0.00,VWS V14.00,2015-01-26 09:39:00,
2015-01-26 03:44:00,30.8,28.0,30.01,SSW,211,2.0,3.0,89,0.00,,OVC018,0.00,0.00,VWS V14.00,2015-01-26 09:44:00,
2015-01-26 03:49:00,30.8,28.0,30.01,SSW,211,3.0,4.0,89,0.00,,OVC018,0.00,0.00,VWS V14.00,2015-01-26 09:49:00,
2015-01-26 03:54:00,30.9,28.0,30.01,SW,228,0.0,5.0,89,0.00,,OVC018,0.00,0.00,VWS V14.00,2015-01-26 09:54:00,
2015-01-26 03:59:00,30.9,28.0,30.00,SSW,198,0.0,5.0,89,0.00,,OVC018,0.00,0.00,VWS V14.00,2015-01-26 09:59:00,
2015-01-26 04:04:00,30.9,28.0,30.00,SSW,204,3.0,7.0,89,0.00,,OVC017,0.00,0.00,VWS V14.00,2015-01-26 10:04:00,
2015-01-26 04:09:00,31.0,28.1,30.01,SSW,209,3.0,4.0,89,0.00,,OVC017,0.00,0.00,VWS V14.00,2015-01-26 10:09:00,
2015-01-26 04:14:00,31.0,28.1,30.01,SW,219,5.0,6.0,89,0.00,,OVC017,0.00,0.00,VWS V14.00,2015-01-26 10:14:00,
2015-01-26 04:19:00,31.0,28.1,30.01,SW,221,3.0,5.0,89,0.00,,OVC017,0.00,0.00,VWS V14.00,2015-01-26 10:19:00,
2015-01-26 04:24:00,31.0,28.1,30.02,SW,219,4.0,4.0,89,0.00,,OVC018,0.00,0.00,VWS V14.00,2015-01-26 10:24:00,
2015-01-26 04:29:00,31.1,28.2,30.03,SW,220,0.0,4.0,89,0.00,,OVC018,0.00,0.00,VWS V14.00,2015-01-26 10:29:00,
2015-01-26 04:34:00,31.1,28.2,30.03,SW,220,0.0,0.0,89,0.00,,OVC018,0.00,0.00,VWS V14.00,2015-01-26 10:34:00,
2015-01-26 04:39:00,31.1,28.2,30.03,SW,220,0.0,0.0,89,0.00,,OVC018,0.00,0.00,VWS V14.00,2015-01-26 10:39:00,
2015-01-26 04:44:00,31.2,28.3,30.02,SW,222,0.0,5.0,89,0.00,,OVC019,0.00,0.00,VWS V14.00,2015-01-26 10:44:00,
2015-01-26 04:49:00,31.2,28.3,29.99,SSW,204,4.0,8.0,89,0.00,,OVC019,0.00,0.00,VWS V14.00,2015-01-26 10:49:00,
2015-01-26 04:54:00,31.2,28.3,29.98,SSW,206,3.0,6.0,89,0.00,,OVC019,0.00,0.00,VWS V14.00,2015-01-26 10:54:00,
2015-01-26 04:59:00,31.2,28.3,29.97,SSW,199,5.0,6.0,89,0.00,,OVC019,0.00,0.00,VWS V14.00,2015-01-26 10:59:00,
2015-01-26 05:04:00,31.2,28.6,29.97,SW,217,4.0,8.0,90,0.00,,OVC020,0.00,0.00,VWS V14.00,2015-01-26 11:04:00,
2015-01-26 05:09:00,31.2,28.6,29.97,SSW,204,2.0,7.0,90,0.00,,OVC020,0.00,0.00,VWS V14.00,2015-01-26 11:09:00,
2015-01-26 05:14:00,31.2,28.6,29.98,WSW,246,5.0,9.0,90,0.00,,OVC020,0.00,0.00,VWS V14.00,2015-01-26 11:14:00,
2015-01-26 05:19:00,31.2,28.3,29.98,SSW,212,5.0,7.0,89,0.00,,OVC020,0.00,0.00,VWS V14.00,2015-01-26 11:19:00,
2015-01-26 05:24:00,31.3,28.7,29.97,SW,216,6.0,9.0,90,0.00,,OVC019,0.00,0.00,VWS V14.00,2015-01-26 11:24:00,
2015-01-26 05:29:00,31.4,28.8,29.98,SSW,206,5.0,7.0,90,0.00,,OVC019,0.00,0.00,VWS V14.00,2015-01-26 11:29:00,
2015-01-26 05:34:00,31.4,28.5,29.97,SSW,207,4.0,8.0,89,0.00,,OVC019,0.00,0.00,VWS V14.00,2015-01-26 11:34:00,
2015-01-26 05:39:00,31.5,28.6,29.97,SSW,212,6.0,10.0,89,0.00,,OVC019,0.00,0.00,VWS V14.00,2015-01-26 11:39:00,
2015-01-26 05:44:00,31.5,28.6,29.95,SW,215,4.0,7.0,89,0.00,,OVC018,0.00,0.00,VWS V14.00,2015-01-26 11:44:00,
2015-01-26 05:49:00,31.5,28.9,29.95,SSW,207,5.0,8.0,90,0.00,,OVC018,0.00,0.00,VWS V14.00,2015-01-26 11:49:00,
2015-01-26 05:54:00,31.6,29.0,29.93,SSW,196,3.0,9.0,90,0.00,,OVC018,0.00,0.00,VWS V14.00,2015-01-26 11:54:00,
2015-01-26 05:59:00,31.6,29.0,29.94,SSW,209,3.0,6.0,90,0.00,,OVC018,0.00,0.00,VWS V14.00,2015-01-26 11:59:00,
2015-01-26 06:04:00,31.6,29.0,29.94,SSW,209,5.0,7.0,90,0.00,,OVC016,0.00,0.00,VWS V14.00,2015-01-26 12:04:00,
2015-01-26 06:09:00,31.7,29.1,29.94,SW,215,3.0,5.0,90,0.00,,OVC016,0.00,0.00,VWS V14.00,2015-01-26 12:09:00,
2015-01-26 06:14:00,31.7,29.1,29.94,SW,225,4.0,8.0,90,0.00,,OVC016,0.00,0.00,VWS V14.00,2015-01-26 12:14:00,
2015-01-26 06:19:00,31.7,29.1,29.96,SSW,209,5.0,10.0,90,0.00,,OVC016,0.00,0.00,VWS V14.00,2015-01-26 12:19:00,
2015-01-26 06:24:00,31.8,29.2,29.94,SW,218,3.0,5.0,90,0.00,,OVC015,0.00,0.00,VWS V14.00,2015-01-26 12:24:00,
2015-01-26 06:29:00,31.8,29.2,29.95,SSW,213,1.0,7.0,90,0.00,,OVC015,0.00,0.00,VWS V14.00,2015-01-26 12:29:00,
2015-01-26 06:34:00,31.9,29.3,29.94,SSW,196,0.0,6.0,90,0.00,,OVC015,0.00,0.00,VWS V14.00,2015-01-26 12:34:00,
2015-01-26 06:39:00,31.9,29.3,29.95,SSW,200,0.0,6.0,90,0.00,,OVC015,0.00,0.00,VWS V14.00,2015-01-26 12:39:00,
2015-01-26 06:44:00,31.9,29.3,29.94,SSW,197,4.0,7.0,90,0.00,,OVC013,0.00,0.00,VWS V14.00,2015-01-26 12:44:00,
2015-01-26 06:49:00,31.9,29.3,29.94,SSW,195,5.0,6.0,90,0.00,,OVC013,0.00,0.00,VWS V14.00,2015-01-26 12:49:00,
2015-01-26 06:54:00,31.9,29.3,29.93,SSW,194,4.0,6.0,90,0.00,,OVC013,0.00,0.00,VWS V14.00,2015-01-26 12:54:00,
2015-01-26 06:59:00,31.9,29.3,29.92,SSW,194,4.0,7.0,90,0.00,,OVC013,0.00,0.00,VWS V14.00,2015-01-26 12:59:00,
2015-01-26 07:04:00,31.8,29.2,29.90,SSW,193,8.0,12.0,90,0.00,,OVC060,0.00,0.00,VWS V14.00,2015-01-26 13:04:00,
2015-01-26 07:09:00,31.7,29.4,29.90,SSW,211,8.0,10.0,91,0.00,,OVC060,0.00,0.00,VWS V14.00,2015-01-26 13:09:00,
2015-01-26 07:14:00,31.7,29.4,29.88,SSW,203,5.0,12.0,91,0.00,,OVC060,0.00,0.00,VWS V14.00,2015-01-26 13:14:00,
2015-01-26 07:19:00,31.6,29.3,29.86,SSW,202,11.0,15.0,91,0.00,,OVC060,0.00,0.00,VWS V14.00,2015-01-26 13:19:00,
2015-01-26 07:24:00,31.6,29.3,29.86,SSW,196,7.0,12.0,91,0.00,,BKN055,0.00,0.00,VWS V14.00,2015-01-26 13:24:00,
2015-01-26 07:29:00,31.6,29.3,29.86,SSW,198,11.0,11.0,91,0.00,,BKN055,0.00,0.00,VWS V14.00,2015-01-26 13:29:00,
2015-01-26 07:34:00,31.5,29.2,29.87,SSW,197,11.0,12.0,91,0.00,,BKN055,0.00,0.00,VWS V14.00,2015-01-26 13:34:00,
2015-01-26 07:39:00,31.5,29.2,29.87,SW,223,8.0,10.0,91,0.00,,BKN055,0.00,0.00,VWS V14.00,2015-01-26 13:39:00,
2015-01-26 07:44:00,31.7,29.4,29.86,SSW,206,5.0,9.0,91,0.00,,OVC065,0.00,5.00,VWS V14.00,2015-01-26 13:44:00,
2015-01-26 07:49:00,31.7,29.4,29.85,SW,215,7.0,11.0,91,0.00,,OVC065,0.00,9.00,VWS V14.00,2015-01-26 13:49:00,
2015-01-26 07:54:00,31.8,29.5,29.87,SSW,202,9.0,12.0,91,0.00,,OVC065,0.00,5.00,VWS V14.00,2015-01-26 13:54:00,
2015-01-26 07:59:00,31.9,29.6,29.87,SW,217,7.0,12.0,91,0.00,,OVC065,0.00,0.00,VWS V14.00,2015-01-26 13:59:00,
2015-01-26 08:04:00,32.0,29.7,29.86,SSW,197,8.0,11.0,91,0.00,,OVC100,0.00,9.00,VWS V14.00,2015-01-26 14:04:00,
2015-01-26 08:09:00,32.0,29.7,29.86,SSW,201,10.0,10.0,91,0.00,,OVC100,0.00,12.00,VWS V14.00,2015-01-26 14:09:00,
2015-01-26 08:14:00,32.1,29.8,29.85,SW,229,4.0,9.0,91,0.00,,OVC100,0.00,19.00,VWS V14.00,2015-01-26 14:14:00,
2015-01-26 08:19:00,32.1,29.8,29.85,SW,219,7.0,11.0,91,0.00,,OVC100,0.00,30.00,VWS V14.00,2015-01-26 14:19:00,
2015-01-26 08:24:00,32.2,29.9,29.85,SW,229,4.0,12.0,91,0.00,,BKN120,0.00,33.00,VWS V14.00,2015-01-26 14:24:00,
2015-01-26 08:29:00,32.3,30.0,29.85,SSW,210,5.0,11.0,91,0.00,,BKN120,0.00,35.00,VWS V14.00,2015-01-26 14:29:00,
2015-01-26 08:34:00,32.6,30.3,29.84,SSW,208,7.0,16.0,91,0.00,,BKN120,0.00,35.00,VWS V14.00,2015-01-26 14:34:00,
2015-01-26 08:39:00,32.8,30.5,29.83,SW,214,9.0,13.0,91,0.00,,BKN120,0.00,37.00,VWS V14.00,2015-01-26 14:39:00,
2015-01-26 08:44:00,33.0,30.7,29.83,SSW,213,8.0,13.0,91,0.00,,OVC110,0.00,44.00,VWS V14.00,2015-01-26 14:44:00,
2015-01-26 08:49:00,33.2,30.9,29.83,SW,215,9.0,12.0,91,0.00,,OVC110,0.00,46.00,VWS V14.00,2015-01-26 14:49:00,
2015-01-26 08:54:00,33.5,30.9,29.83,WSW,248,4.0,12.0,90,0.00,,OVC110,0.00,40.00,VWS V14.00,2015-01-26 14:54:00,
2015-01-26 08:59:00,33.8,30.9,29.83,SSW,207,13.0,15.0,89,0.00,,OVC110,0.00,42.00,VWS V14.00,2015-01-26 14:59:00,
2015-01-26 09:04:00,34.1,31.2,29.82,SW,231,9.0,12.0,89,0.00,,OVC110,0.00,54.00,VWS V14.00,2015-01-26 15:04:00,
2015-01-26 09:09:00,34.2,31.0,29.82,SW,216,11.0,14.0,88,0.00,,OVC110,0.00,81.00,VWS V14.00,2015-01-26 15:09:00,
2015-01-26 09:14:00,34.2,31.0,29.82,West,262,6.0,14.0,88,0.00,,OVC110,0.00,95.00,VWS V14.00,2015-01-26 15:14:00,
2015-01-26 09:19:00,34.2,31.0,29.83,WSW,254,9.0,12.0,88,0.00,,OVC110,0.00,109.00,VWS V14.00,2015-01-26 15:19:00,
2015-01-26 09:24:00,34.3,31.1,29.83,SW,236,10.0,12.0,88,0.00,,OVC100,0.00,107.00,VWS V14.00,2015-01-26 15:24:00,
2015-01-26 09:29:00,34.3,31.1,29.83,SW,216,7.0,14.0,88,0.00,,OVC100,0.00,132.00,VWS V14.00,2015-01-26 15:29:00,
2015-01-26 09:34:00,34.5,31.3,29.83,WSW,239,8.0,11.0,88,0.00,,OVC100,0.00,104.00,VWS V14.00,2015-01-26 15:34:00,
2015-01-26 09:39:00,34.5,31.3,29.83,SW,215,6.0,8.0,88,0.00,,OVC100,0.00,33.00,VWS V14.00,2015-01-26 15:39:00,
2015-01-26 09:44:00,34.7,31.5,29.84,NW,304,7.0,8.0,88,0.00,,OVC110,0.00,151.00,VWS V14.00,2015-01-26 15:44:00,
2015-01-26 09:49:00,35.2,32.0,29.85,West,264,6.0,12.0,88,0.00,,OVC110,0.00,160.00,VWS V14.00,2015-01-26 15:49:00,
2015-01-26 09:54:00,35.7,32.2,29.85,WNW,286,5.0,9.0,87,0.00,,OVC110,0.00,246.00,VWS V14.00,2015-01-26 15:54:00,
2015-01-26 09:59:00,36.1,32.3,29.85,WNW,294,5.0,8.0,86,0.00,,OVC110,0.00,225.00,VWS V14.00,2015-01-26 15:59:00,
2015-01-26 10:04:00,36.6,32.8,29.85,WNW,290,3.0,11.0,86,0.00,,BKN120,0.00,220.00,VWS V14.00,2015-01-26 16:04:00,
2015-01-26 10:09:00,37.2,33.1,29.85,West,273,6.0,8.0,85,0.00,,BKN120,0.00,111.00,VWS V14.00,2015-01-26 16:09:00,
2015-01-26 10:14:00,37.8,33.4,29.85,WNW,287,1.0,11.0,84,0.00,,BKN120,0.00,37.00,VWS V14.00,2015-01-26 16:14:00,
2015-01-26 10:19:00,38.4,33.7,29.85,West,276,6.0,11.0,83,0.00,,BKN120,0.00,63.00,VWS V14.00,2015-01-26 16:19:00,
2015-01-26 10:24:00,38.9,34.2,29.85,West,279,7.0,14.0,83,0.00,,FEW120,0.00,63.00,VWS V14.00,2015-01-26 16:24:00,
2015-01-26 10:29:00,39.3,34.3,29.84,WNW,288,9.0,14.0,82,0.00,,FEW120,0.00,53.00,VWS V14.00,2015-01-26 16:29:00,
2015-01-26 10:34:00,39.5,34.5,29.84,WNW,300,9.0,13.0,82,0.00,,FEW120,0.00,185.00,VWS V14.00,2015-01-26 16:34:00,
2015-01-26 10:39:00,40.0,35.0,29.85,SW,226,8.0,10.0,82,0.00,,FEW120,0.00,281.00,VWS V14.00,2015-01-26 16:39:00,
2015-01-26 10:44:00,40.4,35.0,29.85,WNW,292,5.0,12.0,81,0.00,,CLR,0.00,216.00,VWS V14.00,2015-01-26 16:44:00,
2015-01-26 10:49:00,40.9,35.2,29.85,West,280,6.0,15.0,80,0.00,,CLR,0.00,262.00,VWS V14.00,2015-01-26 16:49:00,
2015-01-26 10:54:00,41.1,35.4,29.85,North,350,5.0,13.0,80,0.00,,CLR,0.00,83.00,VWS V14.00,2015-01-26 16:54:00,
2015-01-26 10:59:00,41.5,35.8,29.85,NW,306,10.0,13.0,80,0.00,,CLR,0.00,151.00,VWS V14.00,2015-01-26 16:59:00,
2015-01-26 11:04:00,41.9,36.2,29.85,NW,310,13.0,18.0,80,0.00,,CLR,0.00,141.00,VWS V14.00,2015-01-26 17:04:00,
2015-01-26 11:09:00,42.1,36.4,29.85,NW,319,10.0,19.0,80,0.00,,CLR,0.00,113.00,VWS V14.00,2015-01-26 17:09:00,
2015-01-26 11:14:00,42.4,36.4,29.85,WNW,292,7.0,20.0,79,0.00,,CLR,0.00,239.00,VWS V14.00,2015-01-26 17:14:00,
2015-01-26 11:19:00,42.8,36.8,29.85,NW,306,13.0,17.0,79,0.00,,CLR,0.00,70.00,VWS V14.00,2015-01-26 17:19:00,
2015-01-26 11:24:00,43.2,36.8,29.85,NW,319,10.0,14.0,78,0.00,,CLR,0.00,248.00,VWS V14.00,2015-01-26 17:24:00,
2015-01-26 11:29:00,43.6,37.5,29.85,NW,312,12.0,16.0,79,0.00,,CLR,0.00,207.00,VWS V14.00,2015-01-26 17:29:00,
2015-01-26 11:34:00,44.1,37.7,29.85,WNW,296,9.0,11.0,78,0.00,,CLR,0.00,236.00,VWS V14.00,2015-01-26 17:34:00,
2015-01-26 11:39:00,44.6,37.8,29.85,NW,325,9.0,17.0,77,0.00,,CLR,0.00,338.00,VWS V14.00,2015-01-26 17:39:00,
2015-01-26 11:44:00,44.9,37.8,29.85,NW,307,15.0,17.0,76,0.00,,CLR,0.00,327.00,VWS V14.00,2015-01-26 17:44:00,
2015-01-26 11:49:00,45.0,37.9,29.85,NNW,333,5.0,14.0,76,0.00,,CLR,0.00,241.00,VWS V14.00,2015-01-26 17:49:00,
2015-01-26 11:54:00,45.2,37.8,29.85,WNW,293,7.0,16.0,75,0.00,,CLR,0.00,355.00,VWS V14.00,2015-01-26 17:54:00,
2015-01-26 11:59:00,45.5,38.0,29.85,NW,315,15.0,17.0,75,0.00,,CLR,0.00,385.00,VWS V14.00,2015-01-26 17:59:00,
2015-01-26 12:04:00,45.8,38.3,29.85,NW,313,8.0,16.0,75,0.00,,CLR,0.00,473.00,VWS V14.00,2015-01-26 18:04:00,
2015-01-26 12:09:00,46.0,38.2,29.85,West,281,8.0,12.0,74,0.00,,CLR,0.00,508.00,VWS V14.00,2015-01-26 18:09:00,
2015-01-26 12:14:00,46.1,38.6,29.85,WSW,257,5.0,14.0,75,0.00,,CLR,0.00,510.00,VWS V14.00,2015-01-26 18:14:00,
2015-01-26 12:19:00,46.3,38.8,29.85,NW,314,6.0,16.0,75,0.00,,CLR,0.00,512.00,VWS V14.00,2015-01-26 18:19:00,
2015-01-26 12:24:00,46.7,38.9,29.85,NNW,341,11.0,18.0,74,0.00,,CLR,0.00,510.00,VWS V14.00,2015-01-26 18:24:00,
2015-01-26 12:29:00,46.9,38.7,29.85,WNW,301,9.0,20.0,73,0.00,,CLR,0.00,512.00,VWS V14.00,2015-01-26 18:29:00,
2015-01-26 12:34:00,47.3,39.5,29.85,WNW,298,4.0,11.0,74,0.00,,CLR,0.00,508.00,VWS V14.00,2015-01-26 18:34:00,
2015-01-26 12:39:00,47.9,39.7,29.85,WNW,295,6.0,11.0,73,0.00,,CLR,0.00,508.00,VWS V14.00,2015-01-26 18:39:00,
2015-01-26 12:44:00,48.2,39.6,29.85,NW,304,8.0,15.0,72,0.00,,CLR,0.00,506.00,VWS V14.00,2015-01-26 18:44:00,
2015-01-26 12:49:00,48.3,39.3,29.85,WNW,290,13.0,14.0,71,0.00,,CLR,0.00,503.00,VWS V14.00,2015-01-26 18:49:00,
2015-01-26 12:54:00,48.3,39.3,29.85,NW,315,14.0,14.0,71,0.00,,CLR,0.00,499.00,VWS V14.00,2015-01-26 18:54:00,
2015-01-26 12:59:00,48.6,40.0,29.85,NW,316,9.0,19.0,72,0.00,,CLR,0.00,496.00,VWS V14.00,2015-01-26 18:59:00,
2015-01-26 13:04:00,48.9,39.9,29.86,NW,307,8.0,16.0,71,0.00,,CLR,0.00,496.00,VWS V14.00,2015-01-26 19:04:00,
2015-01-26 13:09:00,49.0,40.0,29.85,NW,315,18.0,20.0,71,0.00,,CLR,0.00,492.00,VWS V14.00,2015-01-26 19:09:00,
2015-01-26 13:14:00,49.1,39.8,29.85,WNW,298,10.0,17.0,70,0.00,,CLR,0.00,485.00,VWS V14.00,2015-01-26 19:14:00,
2015-01-26 13:19:00,49.4,40.0,29.85,NW,313,10.0,17.0,70,0.00,,CLR,0.00,482.00,VWS V14.00,2015-01-26 19:19:00,
2015-01-26 13:24:00,49.7,40.0,29.85,WNW,290,9.0,19.0,69,0.00,,CLR,0.00,469.00,VWS V14.00,2015-01-26 19:24:00,
2015-01-26 13:29:00,49.6,39.9,29.85,NW,324,10.0,14.0,69,0.00,,CLR,0.00,399.00,VWS V14.00,2015-01-26 19:29:00,
2015-01-26 13:34:00,49.8,39.7,29.85,NW,309,4.0,13.0,68,0.00,,CLR,0.00,408.00,VWS V14.00,2015-01-26 19:34:00,
2015-01-26 13:39:00,50.0,40.2,29.85,NW,325,11.0,11.0,69,0.00,,CLR,0.00,424.00,VWS V14.00,2015-01-26 19:39:00,
2015-01-26 13:44:00,50.3,40.5,29.85,NW,325,6.0,15.0,69,0.00,,CLR,0.00,387.00,VWS V14.00,2015-01-26 19:44:00,
2015-01-26 13:46:00,50.4,40.2,29.85,WNW,298,8.0,19.0,68,0.00,,CLR,0.00,353.00,VWS V14.00,2015-01-26 19:46:00,
2015-01-26 13:51:00,50.2,40.1,29.85,WNW,300,5.0,19.0,68,0.00,,CLR,0.00,207.00,VWS V14.00,2015-01-26 19:51:00,
2015-01-26 13:56:00,50.2,40.4,29.85,NW,307,14.0,19.0,69,0.00,,CLR,0.00,285.00,VWS V14.00,2015-01-26 19:56:00,
2015-01-26 14:01:00,50.2,39.7,29.85,NW,319,16.0,20.0,67,0.00,,CLR,0.00,243.00,VWS V14.00,2015-01-26 20:01:00,
2015-01-26 14:06:00,50.1,40.0,29.85,NW,306,11.0,20.0,68,0.00,,CLR,0.00,97.00,VWS V14.00,2015-01-26 20:06:00,
2015-01-26 14:11:00,50.1,40.0,29.86,NW,317,15.0,16.0,68,0.00,,CLR,0.00,230.00,VWS V14.00,2015-01-26 20:11:00,
2015-01-26 14:16:00,50.2,40.1,29.86,NW,313,14.0,20.0,68,0.00,,CLR,0.00,292.00,VWS V14.00,2015-01-26 20:16:00,
2015-01-26 14:21:00,50.4,40.2,29.86,NW,322,7.0,16.0,68,0.00,,CLR,0.00,330.00,VWS V14.00,2015-01-26 20:21:00,
2015-01-26 14:26:00,50.5,40.0,29.86,NW,314,14.0,19.0,67,0.00,,CLR,0.00,225.00,VWS V14.00,2015-01-26 20:26:00,
2015-01-26 14:31:00,50.5,40.3,29.87,NW,306,17.0,17.0,68,0.00,,CLR,0.00,79.00,VWS V14.00,2015-01-26 20:31:00,
2015-01-26 14:36:00,50.3,40.2,29.87,NW,312,10.0,20.0,68,0.00,,CLR,0.00,214.00,VWS V14.00,2015-01-26 20:36:00,
2015-01-26 14:41:00,50.5,40.3,29.87,NW,310,12.0,17.0,68,0.00,,CLR,0.00,248.00,VWS V14.00,2015-01-26 20:41:00,
2015-01-26 14:46:00,50.5,40.3,29.87,NW,317,14.0,23.0,68,0.00,,CLR,0.00,160.00,VWS V14.00,2015-01-26 20:46:00,
2015-01-26 14:51:00,50.5,40.3,29.88,WNW,302,4.0,19.0,68,0.00,,CLR,0.00,267.00,VWS V14.00,2015-01-26 20:51:00,
2015-01-26 14:56:00,50.7,40.9,29.88,NW,326,7.0,14.0,69,0.00,,CLR,0.00,213.00,VWS V14.00,2015-01-26 20:56:00,
2015-01-26 15:01:00,50.9,41.1,29.88,NW,308,14.0,19.0,69,0.00,,CLR,0.00,216.00,VWS V14.00,2015-01-26 21:01:00,
2015-01-26 15:06:00,50.8,41.0,29.88,West,280,10.0,21.0,69,0.00,,CLR,0.00,213.00,VWS V14.00,2015-01-26 21:06:00,
2015-01-26 15:11:00,50.8,40.6,29.88,NW,305,17.0,20.0,68,0.00,,CLR,0.00,209.00,VWS V14.00,2015-01-26 21:11:00,
2015-01-26 15:16:00,50.8,41.0,29.88,NW,308,11.0,17.0,69,0.00,,CLR,0.00,183.00,VWS V14.00,2015-01-26 21:16:00,
2015-01-26 15:21:00,50.7,40.9,29.88,WNW,294,10.0,16.0,69,0.00,,CLR,0.00,165.00,VWS V14.00,2015-01-26 21:21:00,
2015-01-26 15:26:00,50.5,40.3,29.88,WNW,285,8.0,19.0,68,0.00,,CLR,0.00,234.00,VWS V14.00,2015-01-26 21:26:00,
2015-01-26 15:31:00,50.5,40.3,29.88,West,272,9.0,15.0,68,0.00,,CLR,0.00,134.00,VWS V14.00,2015-01-26 21:31:00,
2015-01-26 15:36:00,50.4,40.2,29.88,NW,311,4.0,19.0,68,0.00,,CLR,0.00,90.00,VWS V14.00,2015-01-26 21:36:00,
2015-01-26 15:41:00,50.2,40.4,29.88,WNW,291,9.0,17.0,69,0.00,,CLR,0.00,79.00,VWS V14.00,2015-01-26 21:41:00,
2015-01-26 15:46:00,50.0,40.6,29.88,NW,321,11.0,18.0,70,0.00,,CLR,0.00,72.00,VWS V14.00,2015-01-26 21:46:00,